Home > Weather > Portimão > Past weeks

Flag for Portugal Past Weather in Portimão, Portugal — Yesterday and Last 2 Weeks

Now
75 °F

Clear.


Feels Like: 75 °F
Forecast: 68 / 90 °F
Wind: 13 mph from East

Location: Faro / Aeroporto

Current Time: Aug 27, 2016 at 4:17:55 AM

Latest Report: Aug 27, 2016 at 3:30 AM


Visibility: 10 mi

Pressure: 29.95 "Hg

Humidity: 83%

Dew Point: 70 °F

Location of PortimãoLocation

Past Weather in Portimão — Graph

°F

Portimão Temperature Yesterday

Maximum temperature yesterday: 86 °F (at 1:00 PM)
Minimum temperature yesterday: 75 °F (at 3:30 AM)
Average temperature yesterday: 80 °F

High & Low Weather Summary for the Past Weeks

 TemperatureHumidityPressure
High91 °F (Aug 20, 7:00 PM)89% (Aug 15, 12:00 AM)30.09 "Hg (Aug 15, 12:00 AM)
Low66 °F (Aug 19, 7:30 AM)13% (Aug 20, 7:00 PM)29.86 "Hg (Aug 18, 6:00 PM)
Average78 °F59%29.99 "Hg
* Reported Aug 12 3:00 AM — Aug 27 3:00 AM, Portimão, Weather by CustomWeather, © 2016

Note: Actual official high and low records may vary slightly from our data, if they occured in-between our weather recording intervals... More about our weather records

Advertising

Portimão Weather History for the Previous 24 Hours

Scroll right to see more
 ConditionsComfort  
Time TempWeatherWind HumidityBarometerVisibility
3:00 AM
Sat, Aug 27
75 °FClear.12 mph83%29.95 "Hg10 mi
2:30 AM75 °FClear.8 mph74%29.95 "Hg10 mi
2:00 AM77 °FClear.8 mph69%29.95 "Hg10 mi
1:30 AM77 °FClear.6 mph69%29.98 "Hg10 mi
1:00 AM77 °FClear.6 mph69%29.98 "Hg10 mi
12:30 AM77 °FClear.7 mph69%29.98 "Hg10 mi
12:00 AM77 °FClear.5 mph69%29.98 "Hg10 mi
11:30 PM
Fri, Aug 26
77 °FPassing clouds.5 mph69%29.98 "HgN/A
11:00 PM77 °FPassing clouds.5 mph69%29.98 "HgN/A
10:30 PM77 °FClear.5 mph69%29.98 "Hg10 mi
10:00 PM77 °FPassing clouds.3 mph74%29.98 "HgN/A
9:30 PM77 °FClear.6 mph74%29.95 "Hg10 mi
9:00 PM77 °FSunny.6 mph74%29.95 "Hg10 mi
8:30 PM77 °FSunny.7 mph74%29.92 "Hg10 mi
8:00 PM77 °FSunny.9 mph74%29.92 "Hg10 mi
7:30 PM79 °FSunny.8 mph70%29.92 "Hg10 mi
7:00 PM79 °FSunny.8 mph74%29.92 "Hg10 mi
6:30 PM81 °FSunny.8 mph62%29.89 "Hg10 mi
6:00 PM84 °FPassing clouds.8 mph51%29.89 "HgN/A
5:30 PM86 °FPassing clouds.9 mph49%29.89 "HgN/A
5:00 PM86 °FSunny.13 mph49%29.89 "Hg10 mi
4:30 PM86 °FSunny.13 mph49%29.89 "Hg10 mi
4:00 PM86 °FSunny.13 mph49%29.89 "Hg10 mi
3:30 PM86 °FSunny.14 mph46%29.89 "Hg10 mi
3:00 PM86 °FSunny.14 mph46%29.89 "Hg10 mi
2:30 PM86 °FSunny.16 mph46%29.92 "Hg10 mi
2:00 PM86 °FSunny.17 mph43%29.92 "Hg10 mi
1:30 PM84 °FSunny.16 mph45%29.92 "Hg10 mi
1:00 PM86 °FSunny.15 mph40%29.92 "Hg10 mi
12:30 PM82 °FSunny.15 mph48%29.92 "Hg10 mi
12:00 PM84 °FPassing clouds.15 mph51%29.92 "HgN/A
11:30 AM84 °FPassing clouds.15 mph51%29.92 "HgN/A
11:00 AM81 °FPassing clouds.14 mph58%29.92 "HgN/A
10:30 AM81 °FPassing clouds.15 mph54%29.92 "HgN/A
10:00 AM81 °FSunny.16 mph51%29.92 "Hg10 mi
9:30 AM82 °FSunny.13 mph48%29.89 "Hg10 mi
9:00 AM79 °FPassing clouds.8 mph65%29.89 "HgN/A
8:30 AM77 °FSunny.7 mph74%29.89 "Hg10 mi
8:00 AM75 °FSunny.9 mph78%29.89 "Hg10 mi
7:30 AM75 °FClear.6 mph74%29.89 "Hg10 mi
7:00 AM75 °FClear.8 mph74%29.89 "Hg10 mi
6:30 AM75 °FClear.9 mph74%29.89 "Hg10 mi
6:00 AM75 °FClear.9 mph74%29.86 "Hg10 mi
5:30 AM75 °FClear.7 mph78%29.86 "Hg10 mi
5:00 AM75 °FClear.9 mph74%29.86 "Hg10 mi
4:30 AM75 °FClear.9 mph78%29.86 "Hg10 mi
4:00 AM75 °FClear.8 mph74%29.89 "Hg10 mi
Weather by CustomWeather, © 2016

See weather overviewHow to use our weather pages